Find Starlink 32484

NORAD ID: 62160 Int'l Des: 2024-224 Owner: SPXS Country: US Constellation: starlink operational
LEOCIRCULAR

リアルタイム位置

3D地球を読み込み中...

Starlink 32484について

説明を読み込み中...

次回通過

Passes for default location (London). Set your location on the main map for personalized predictions.

高度履歴

Loading altitude history...

軌道要素

1 62160U 24224X 26132.74816449 .00005771 00000-0 21902-3 0 9993
2 62160 42.9998 156.6114 0001516 274.5169 85.5509 15.27585210 82276
Epoch: May 12, 2026 • Age: 14 hours

現在のステータス

高度 490.1 km
速度 7.62 km/s
衛星直下点 -29.90°S, 126.28°E
打ち上げ日 Nov 30, 2024
運用期間 1.4 years
タイプ internet

技術仕様

分類 Payload
質量 730.00 kg
乾燥質量 700.00 kg
総質量 730.00 kg
長さ 0.30 m
直径 4.10 m
スパン 29.00 m
形状 Box + pan
製造者 SPXS
バスタイプ Starlink V2M
フェーズステータス In Orbit
所有者/国 SPXS/US

Most Searched